Tracking 33485 objects as of 15-Mar-2026
HD Live streaming from Space Station
objects crossing your sky now

STARLINK-36625

Track STARLINK-36625 now!
10-day predictions
STARLINK-36625 is classified as:


NORAD ID: 67668
Int'l Code: 2026-022W
Perigee: 424.2 km
Apogee: 426.2 km
Inclination: 97.3 °
Period: 92.9 minutes
Semi major axis: 6796 km
RCS: Unknown
Launch date: February 2, 2026
Source: United States (US)
Launch site: AIR FORCE WESTERN TEST RANGE (AFWTR)
Your satellite tracking list
Your tracking list is empty




NASA's NSSDC Master Catalog

Two Line Element Set (TLE):
1 67668U 26022W   26074.25001157 -.00649050  00000-0 -12785-1 0  9995
2 67668  97.2844 108.4281 0001514  90.5533 120.0910 15.49545812  5977
Source of the keplerian elements: AFSPC